DW2213 Weather Reports


time (UTC)temp
C
wind
direction
speed
KPH
gust
KPH
rain 1hr
cm
rain 24hr
cm
rain mn
cm
humidity
%
barometer
mb
20260903113304 31 104 1.6 4.8 0.00 0.00 0.00 64 1017.1
20260903112805 31 38 1.6 8.0 0.00 0.00 0.00 64 1017.2
20260903112305 31 144 1.6 3.2 0.00 0.00 0.00 64 1017.2
20260903111804 32 150 1.6 8.0 0.00 0.00 0.00 64 1017.4
20260903110805 32 151 1.6 4.8 0.00 0.00 0.00 64 1017.4
20260903110305 31 150 0.0 1.6 0.00 0.00 0.00 66 1017.5
20260903105805 31 146 0.0 3.2 0.00 0.00 0.00 65 1017.6
20260903105306 31 147 0.0 3.2 0.00 0.00 0.00 66 1017.7
20260903104806 31 150 1.6 8.0 0.00 0.00 0.00 66 1017.7
20260903103805 31 137 0.0 1.6 0.00 0.00 0.00 66 1017.8
20260903103304 31 129 1.6 4.8 0.00 0.00 0.00 67 1017.9
20260903102805 31 140 1.6 4.8 0.00 0.00 0.00 67 1018.0
20260903102306 31 143 1.6 4.8 0.00 0.00 0.00 68 1018.0
20260903101804 31 141 0.0 4.8 0.00 0.00 0.00 67 1018.1
20260903100805 31 110 0.0 4.8 0.00 0.00 0.00 70 1018.1
20260903100306 30 17 1.6 3.2 0.00 0.00 0.00 71 1018.0
20260903095805 30 29 0.0 0.0 0.00 0.00 0.00 71 1018.0
20260903094305 29 77 0.0 0.0 0.00 0.00 0.00 73 1018.0
20260903093804 29 77 0.0 0.0 0.00 0.00 0.00 73 1017.9
20260903092805 29 34 0.0 0.0 0.00 0.00 0.00 74 1018.0
20260903091805 29 32 0.0 0.0 0.00 0.00 0.00 73 1017.9
20260903091304 29 30 0.0 0.0 0.00 0.00 0.00 74 1017.9
20260903090804 29 30 0.0 0.0 0.00 0.00 0.00 74 1018.0
20260903090304 28 30 0.0 0.0 0.00 0.00 0.00 76 1018.0
20260903085805 28 29 0.0 0.0 0.00 0.00 0.00 76 1017.9
20260903085306 28 30 0.0 0.0 0.00 0.00 0.00 77 1017.9
20260903084804 28 30 0.0 0.0 0.00 0.00 0.00 78 1017.9
20260903084304 28 30 0.0 0.0 0.00 0.00 0.00 80 1017.7
20260903083804 28 28 0.0 0.0 0.00 0.00 0.00 80 1017.7
20260903083304 28 28 0.0 0.0 0.00 0.00 0.00 81 1017.8
20260903082805 27 28 0.0 0.0 0.00 0.00 0.00 82 1017.7
20260903081804 27 28 0.0 0.0 0.00 0.00 0.00 83 1017.7
20260903081304 27 28 0.0 0.0 0.00 0.00 0.00 85 1017.7
20260903080305 26 28 0.0 0.0 0.00 0.00 0.00 86 1017.7
20260903075805 26 28 0.0 0.0 0.00 0.00 0.00 86 1017.7
20260903075306 26 28 0.0 0.0 0.00 0.00 0.00 86 1017.7
20260903073804 26 29 0.0 0.0 0.00 0.00 0.00 87 1017.7
20260903073305 25 29 0.0 0.0 0.00 0.00 0.00 87 1017.7
20260903072805 25 29 0.0 0.0 0.00 0.00 0.00 87 1017.6
20260903072307 25 29 0.0 0.0 0.00 0.00 0.00 88 1017.7
20260903071804 25 28 0.0 0.0 0.00 0.00 0.00 88 1017.6
20260903070804 25 28 0.0 0.0 0.00 0.00 0.00 88 1017.5
20260903070305 25 29 0.0 0.0 0.00 0.00 0.00 88 1017.5
20260903065805 25 29 0.0 0.0 0.00 0.00 0.00 89 1017.4
20260903065306 25 28 0.0 0.0 0.00 0.00 0.00 89 1017.4
20260903064804 25 30 0.0 0.0 0.00 0.00 0.00 90 1017.4
20260903064304 24 30 0.0 0.0 0.00 0.00 0.00 90 1017.4
20260903063804 24 30 0.0 0.0 0.00 0.00 0.00 90 1017.3
20260903063304 24 30 0.0 0.0 0.00 0.00 0.00 90 1017.3
20260903062805 24 30 0.0 0.0 0.00 0.00 0.00 90 1017.2
20260903062306 23 30 0.0 0.0 0.00 0.00 0.00 90 1017.2
20260903061804 23 30 0.0 0.0 0.00 0.00 0.00 90 1017.1
20260903060805 24 30 0.0 0.0 0.00 0.00 0.00 91 1017.0
20260903060305 24 30 0.0 0.0 0.00 0.00 0.00 91 1017.0
20260903055805 24 30 0.0 0.0 0.00 0.00 0.00 91 1017.0
20260903055306 24 30 0.0 0.0 0.00 0.00 0.00 91 1016.9
20260903054805 24 30 0.0 0.0 0.00 0.00 0.00 91 1016.8
20260903053804 24 30 0.0 0.0 0.00 0.00 0.00 91 1016.7
20260903052804 24 30 0.0 0.0 0.00 0.00 0.00 91 1016.6
20260903051805 24 30 0.0 0.0 0.00 0.00 0.00 91 1016.4
20260903051304 24 30 0.0 0.0 0.00 0.00 0.00 91 1016.4
20260903050305 24 30 0.0 0.0 0.00 0.00 0.00 90 1016.3
20260903045804 24 30 0.0 0.0 0.00 0.00 0.00 90 1016.4
20260903044304 24 30 0.0 0.0 0.00 0.00 0.00 90 1016.4
20260903043805 24 30 0.0 0.0 0.00 0.00 0.00 90 1016.3
20260903043305 24 30 0.0 0.0 0.00 0.00 0.00 90 1016.4
20260903042804 24 30 0.0 0.0 0.00 0.00 0.00 90 1016.3
20260903042306 24 30 0.0 0.0 0.00 0.00 0.00 90 1016.2
20260903041804 24 30 0.0 0.0 0.00 0.00 0.00 90 1016.1
20260903041305 24 30 0.0 0.0 0.00 0.00 0.00 90 1016.1
20260903040805 24 30 0.0 0.0 0.00 0.00 0.00 90 1016.1
20260903035805 24 30 0.0 0.0 0.00 0.00 0.00 90 1016.1
20260903035306 25 30 0.0 0.0 0.00 0.00 0.00 89 1016.2
20260903034304 25 30 0.0 0.0 0.00 0.00 0.00 89 1016.2
20260903033804 25 30 0.0 0.0 0.00 0.00 0.00 89 1016.2
20260903033305 25 30 0.0 0.0 0.00 0.00 0.00 89 1016.2
20260903032804 25 30 0.0 0.0 0.00 0.00 0.00 89 1016.2
20260903032306 25 30 0.0 0.0 0.00 0.00 0.00 89 1016.1
20260903031805 25 30 0.0 0.0 0.00 0.00 0.00 89 1016.1
20260903030804 25 30 0.0 0.0 0.00 0.00 0.00 89 1016.1
20260903025804 25 30 0.0 0.0 0.00 0.00 0.00 89 1016.1
20260903025306 25 30 0.0 0.0 0.00 0.00 0.00 89 1016.1
20260903024304 25 30 0.0 0.0 0.00 0.00 0.00 89 1016.1
20260903023804 25 30 0.0 0.0 0.00 0.00 0.00 89 1016.1
20260903023304 25 30 0.0 0.0 0.00 0.00 0.00 89 1016.1
20260903022804 25 30 0.0 0.0 0.00 0.00 0.00 89 1016.1
20260903022306 25 30 0.0 0.0 0.00 0.00 0.00 89 1016.1
20260903021805 25 30 0.0 0.0 0.00 0.00 0.00 89 1016.1
20260903021304 25 30 0.0 0.0 0.00 0.00 0.00 89 1016.1
20260903015805 25 30 0.0 0.0 0.00 0.00 0.00 89 1016.2
20260903014804 25 30 0.0 0.0 0.00 0.00 0.00 89 1016.2
20260903013804 25 30 0.0 0.0 0.00 0.00 0.00 89 1016.2
20260903013304 25 30 0.0 0.0 0.00 0.00 0.00 89 1016.2
20260903012804 25 30 0.0 0.0 0.00 0.00 0.00 89 1016.2
20260903012306 25 30 0.0 0.0 0.00 0.00 0.00 89 1016.3
20260903011805 25 30 0.0 0.0 0.00 0.00 0.00 89 1016.3
20260903011305 25 30 0.0 0.0 0.00 0.00 0.00 89 1016.3
20260903010305 25 30 0.0 0.0 0.00 0.00 0.00 89 1016.3
20260903005306 25 30 0.0 0.0 0.00 0.00 0.00 89 1016.4
20260903004804 25 30 0.0 0.0 0.00 0.00 0.00 88 1016.5
20260903003804 25 30 0.0 0.0 0.00 0.00 0.00 88 1016.5
20260903002804 26 30 0.0 0.0 0.00 0.00 0.00 87 1016.5
20260903002306 26 30 0.0 0.0 0.00 0.00 0.00 87 1016.5
20260903001804 26 30 0.0 0.0 0.00 0.00 0.00 87 1016.5
20260903001304 26 30 0.0 0.0 0.00 0.00 0.00 87 1016.6
20260903000804 26 29 0.0 0.0 0.00 0.00 0.00 87 1016.5
20260903000304 26 29 0.0 0.0 0.00 0.00 0.00 87 1016.6
20260902235804 26 29 0.0 0.0 0.00 0.00 0.00 87 1016.6
20260902235306 26 29 0.0 0.0 0.00 0.00 0.00 87 1016.6
20260902234804 26 29 0.0 0.0 0.00 0.00 0.00 87 1016.6
20260902234304 26 29 0.0 0.0 0.00 0.00 0.00 87 1016.6
20260902233803 26 29 0.0 0.0 0.00 0.00 0.00 87 1016.6
20260902233304 26 29 0.0 0.0 0.00 0.00 0.00 87 1016.6
20260902232804 26 29 0.0 0.0 0.00 0.00 0.00 87 1016.6
20260902232306 26 29 0.0 0.0 0.00 0.00 0.00 87 1016.6
20260902231304 26 29 0.0 0.0 0.00 0.00 0.00 87 1016.6
20260902230804 26 29 0.0 0.0 0.00 0.00 0.00 86 1016.7
20260902225805 26 29 0.0 0.0 0.00 0.00 0.00 86 1016.6
20260902225306 26 29 0.0 0.0 0.00 0.00 0.00 86 1016.7
20260902224304 26 29 0.0 0.0 0.00 0.00 0.00 86 1016.7
20260902223804 26 29 0.0 0.0 0.00 0.00 0.00 86 1016.7
20260902223304 26 29 0.0 0.0 0.00 0.00 0.00 86 1016.6
20260902222306 26 29 0.0 0.0 0.00 0.00 0.00 86 1016.6
20260902221804 26 29 0.0 0.0 0.00 0.00 0.00 85 1016.6
20260902221304 26 29 0.0 0.0 0.00 0.00 0.00 85 1016.6
20260902220816 27 29 0.0 0.0 0.00 0.00 0.00 85 1016.6
20260902220305 27 29 0.0 0.0 0.00 0.00 0.00 85 1016.6
20260902215804 27 29 0.0 0.0 0.00 0.00 0.00 85 1016.6
20260902215306 27 29 0.0 0.0 0.00 0.00 0.00 85 1016.6
20260902214804 27 29 0.0 0.0 0.00 0.00 0.00 84 1016.6
20260902214304 27 29 0.0 0.0 0.00 0.00 0.00 84 1016.6
20260902213804 27 29 0.0 0.0 0.00 0.00 0.00 84 1016.6
20260902213303 27 29 0.0 0.0 0.00 0.00 0.00 84 1016.6
20260902212804 27 29 0.0 0.0 0.00 0.00 0.00 84 1016.6
20260902212306 27 30 0.0 0.0 0.00 0.00 0.00 84 1016.5
20260902211804 27 30 0.0 0.0 0.00 0.00 0.00 84 1016.5
20260902211303 27 30 0.0 0.0 0.00 0.00 0.00 84 1016.6
20260902210804 27 30 0.0 0.0 0.00 0.00 0.00 84 1016.5
20260902210304 27 29 0.0 0.0 0.00 0.00 0.00 84 1016.5
20260902205803 27 29 0.0 0.0 0.00 0.00 0.00 84 1016.6
20260902205306 27 28 0.0 0.0 0.00 0.00 0.00 84 1016.5
20260902204804 27 28 0.0 0.0 0.00 0.00 0.00 84 1016.5
20260902203804 27 28 0.0 0.0 0.00 0.00 0.00 84 1016.5
20260902203304 27 26 0.0 0.0 0.00 0.00 0.00 84 1016.3
20260902202306 27 26 0.0 0.0 0.00 0.00 0.00 84 1016.2
20260902201804 27 26 0.0 0.0 0.00 0.00 0.00 84 1016.1
20260902201304 27 26 0.0 0.0 0.00 0.00 0.00 84 1016.0
20260902200804 27 24 0.0 0.0 0.00 0.00 0.00 84 1016.0
20260902200304 27 22 0.0 0.0 0.00 0.00 0.00 84 1015.9
20260902195804 27 23 0.0 0.0 0.00 0.00 0.00 84 1015.9
20260902193304 27 50 0.0 0.0 0.00 0.00 0.00 83 1015.4
20260902192804 27 49 0.0 0.0 0.00 0.00 0.00 83 1015.3
20260902192306 27 12 0.0 0.0 0.00 0.00 0.00 83 1015.2
20260902191804 27 54 0.0 0.0 0.00 0.00 0.00 83 1015.1
20260902191303 27 134 0.0 0.0 0.00 0.00 0.00 83 1015.1
20260902190803 27 134 0.0 0.0 0.00 0.00 0.00 83 1015.1
20260902190304 27 134 0.0 0.0 0.00 0.00 0.00 82 1015.0
20260902185804 27 134 0.0 0.0 0.00 0.00 0.00 82 1014.9
20260902185306 27 134 0.0 0.0 0.00 0.00 0.00 82 1014.7
20260902184804 27 134 0.0 0.0 0.00 0.00 0.00 82 1014.7
20260902184304 27 135 0.0 0.0 0.00 0.00 0.00 82 1014.7
20260902183804 28 135 0.0 0.0 0.00 0.00 0.00 82 1014.6
20260902183303 28 135 0.0 3.2 0.00 0.00 0.00 81 1014.6
20260902182804 28 135 0.0 1.6 0.00 0.00 0.00 81 1014.6
20260902182306 28 135 0.0 4.8 0.00 0.00 0.00 81 1014.6
20260902181804 28 122 0.0 1.6 0.00 0.00 0.00 80 1014.6
20260902181304 28 121 0.0 3.2 0.00 0.00 0.00 80 1014.7
20260902180804 28 120 0.0 3.2 0.00 0.00 0.00 80 1014.8
20260902180304 28 115 0.0 4.8 0.00 0.00 0.00 80 1014.7
20260902175804 28 105 1.6 4.8 0.00 0.00 0.00 79 1014.8
20260902175307 28 64 1.6 8.0 0.00 0.00 0.00 79 1014.8
20260902174804 28 80 0.0 4.8 0.00 0.00 0.00 78 1014.7
20260902173804 28 120 0.0 3.2 0.00 0.00 0.00 78 1014.6
20260902173304 28 109 0.0 4.8 0.00 0.00 0.00 77 1014.6
20260902172803 28 134 0.0 8.0 0.00 0.00 0.00 76 1014.5
20260902172308 28 128 1.6 8.0 0.00 0.00 0.00 76 1014.4
20260902171804 29 127 3.2 8.0 0.00 0.00 0.00 76 1014.4
20260902170803 29 126 1.6 11.3 0.00 0.00 0.00 76 1014.4
20260902170305 29 128 3.2 8.0 0.00 0.00 0.00 75 1014.3
20260902165309 29 127 1.6 4.8 0.00 0.00 0.00 74 1014.3
20260902164805 30 114 1.6 11.3 0.00 0.00 0.00 73 1014.4
20260902164306 30 140 1.6 4.8 0.00 0.00 0.00 74 1014.4
20260902163805 30 135 1.6 9.7 0.00 0.00 0.00 73 1014.4
20260902163305 30 137 3.2 11.3 0.00 0.00 0.00 73 1014.3
20260902162805 30 78 1.6 16.1 0.00 0.00 0.00 73 1014.4
20260902162307 30 119 3.2 9.7 0.00 0.00 0.00 72 1014.4
20260902161805 30 118 1.6 9.7 0.00 0.00 0.00 71 1014.4
20260902161305 30 136 3.2 11.3 0.00 0.00 0.00 71 1014.3
20260902160805 30 116 3.2 8.0 0.00 0.00 0.00 70 1014.3
20260902160305 31 96 1.6 8.0 0.00 0.00 0.00 69 1014.3
20260902155307 31 128 1.6 8.0 0.00 0.00 0.00 68 1014.4
20260902154805 31 134 3.2 8.0 0.00 0.00 0.00 67 1014.3
20260902153804 31 122 3.2 8.0 0.00 0.00 0.00 68 1014.5
20260902153305 31 105 1.6 9.7 0.00 0.00 0.00 68 1014.5
20260902152307 31 86 3.2 8.0 0.00 0.00 0.00 69 1014.5
20260902151805 31 138 1.6 9.7 0.00 0.00 0.00 70 1014.6
20260902151305 31 117 3.2 8.0 0.00 0.00 0.00 69 1014.5
20260902150305 31 118 1.6 11.3 0.00 0.00 0.00 70 1014.6
20260902145806 31 125 3.2 11.3 0.00 0.00 0.00 70 1014.6
20260902145306 31 124 1.6 11.3 0.00 0.00 0.00 70 1014.5
20260902144805 31 137 3.2 11.3 0.00 0.00 0.00 70 1014.6
20260902144305 31 110 1.6 8.0 0.00 0.00 0.00 69 1014.7
20260902143305 31 138 3.2 9.7 0.00 0.00 0.00 69 1014.7
20260902142805 31 132 3.2 9.7 0.00 0.00 0.00 68 1014.8
20260902142306 31 115 1.6 8.0 0.00 0.00 0.00 69 1014.8
20260902141806 31 118 1.6 4.8 0.00 0.00 0.00 68 1014.9
20260902141306 31 99 3.2 8.0 0.00 0.00 0.00 68 1014.9
20260902140305 31 120 3.2 12.9 0.00 0.00 0.00 66 1015.0
20260902135805 32 138 1.6 9.7 0.00 0.00 0.00 66 1015.1
20260902134804 31 124 3.2 11.3 0.00 0.00 0.00 67 1015.1
20260902134305 31 128 3.2 12.9 0.00 0.00 0.00 67 1015.1
20260902133805 31 124 1.6 9.7 0.00 0.00 0.00 67 1015.1
20260902132805 31 124 3.2 11.3 0.00 0.00 0.00 66 1015.2
20260902131805 31 123 3.2 9.7 0.00 0.00 0.00 66 1015.2
20260902131305 31 132 1.6 12.9 0.00 0.00 0.00 67 1015.2
20260902130805 31 128 4.8 9.7 0.00 0.00 0.00 66 1015.3
20260902125805 31 131 1.6 12.9 0.00 0.00 0.00 66 1015.4
20260902125306 31 129 1.6 9.7 0.00 0.00 0.00 67 1015.4
20260902124805 31 132 1.6 12.9 0.00 0.00 0.00 66 1015.5
20260902124304 31 132 0.0 4.8 0.00 0.00 0.00 66 1015.5
20260902123305 31 134 4.8 11.3 0.00 0.00 0.00 67 1015.7
20260902122805 31 135 1.6 4.8 0.00 0.00 0.00 67 1015.7
20260902121804 31 137 1.6 8.0 0.00 0.00 0.00 65 1015.8
20260902121305 31 135 1.6 4.8 0.00 0.00 0.00 66 1015.7
20260902120805 31 155 1.6 8.0 0.00 0.00 0.00 67 1015.7
20260902120305 31 136 1.6 8.0 0.00 0.00 0.00 66 1015.8
20260902115804 31 131 1.6 9.7 0.00 0.00 0.00 68 1015.8
20260902114804 31 155 0.0 4.8 0.00 0.00 0.00 68 1015.8
20260902114305 31 128 3.2 9.7 0.00 0.00 0.00 68 1016.0
20260902113805 31 147 0.0 11.3 0.00 0.00 0.00 69 1016.0